Weather in Clonakilty

Ireland     51°37′13″N   8°53′25″W
temp.,
°C
wind,
m/s
gust,
m/s
humid.,
%
clouds,
%
prec.,
mm/h
press.,
hPa
HPBL,
m
12 may, wed
wed1201:00+10wsw9118699 1.1 1003626
04:00+10sw7108587 0.8 1003584
07:00+10sw7987100 1.3 1003466
10:00+10ssw788580 0.9 1003351
13:00+10s568683 1.1 1004300
16:00+9n678990 1.6 1005300
19:00+10nne578270 1.8 1006433
22:00+9n47855 0.0 1008260
13 may, thu
thu1301:00+8nnw58855 0.0 1009225
04:00+8nnw46832 0.0 1009205
07:00+8nnw36861 0.0 1010259
10:00+10wnw357612 0.0 1010442
13:00+12wnw457453 0.4 1010186
16:00+13nnw447245 1.1 1010162
19:00+12nnw79725 1.8 1011265
22:00+10nw48820 0.0 1012387
14 may, fri
fri1401:00+9nw47840 0.0 1012350
04:00+8wnw34840 0.0 1012164
07:00+8nw238239 0.0 1012112
10:00+10s227831 0.0 1012197
13:00+10ssw4483100 0.0 1010374
16:00+10s6777100 0.0 1008675
19:00+9ssw91186100 1.4 1006737
22:00+9se121587100 1.5 1003917
15 may, sat
sat1501:00+10sse11129569 2.6 999538
04:00+10sw47915 0.4 997178
07:00+11wsw610845 1.4 996261
10:00+11sw9128724 1.3 995512
13:00+11sw101488100 3.9 995679
16:00+11sw121691100 0.8 994878
19:00+11wsw11159092 1.4 993637
22:00+11w10158913 0.1 995674
16 may, sun
sun1601:00+10w1116875 0.1 996699
04:00+10w712885 0.0 997504
07:00+10w9128979 0.0 998572
10:00+11w81184100 0.1 999569
13:00+11w10127928 0.2 999631
16:00+13wnw9127568 0.9 1000345
19:00+12nw8127766 2.0 1003479
22:00+10nw711805 0.0 1006770